SV2BBO-2 Thessaloniki GR current weather conditions

sailwx.info

Wind from 189 at 4 knots gusting 4

Air temperature 27.8° C
Dewpoint 5.3° C

Last reported at 2014-Sep-01 17:47 UTC.
Time now 2014-Sep-01 18:53 UTC

Location: N 40°38' E 022°57'.
View on Google Maps.

See reports from other nearby stations

  
Tides and Currents Weather Stations Pressure Air Temp Water Temp Dewpoint Dewpoint Depression Visibility Wind Speed Wind Dir Waves Ship Positions
date/time (UTC)wind fromknots sea level pressurealtimeterstation pressurevisibilityair tempwater tempwave heightnotes
2014-Sep-01 17:47 189 4 gusting 4 27.8
2014-Sep-01 17:37 147 3 gusting 5 27.8
2014-Sep-01 17:27 177 5 gusting 7 27.8
2014-Sep-01 17:17 193 5 gusting 6 27.8
2014-Sep-01 17:07 184 4 gusting 5 27.8
2014-Sep-01 16:57 184 4 gusting 6 27.8
2014-Sep-01 16:47 202 5 gusting 8 27.8
2014-Sep-01 16:37 173 4 gusting 5 27.8
2014-Sep-01 16:27 210 6 gusting 8 27.8
2014-Sep-01 16:17 193 6 gusting 9 27.8
2014-Sep-01 16:07 191 5 gusting 7 28.3
2014-Sep-01 15:57 169 3 gusting 6 28.3
2014-Sep-01 15:47 195 6 gusting 8 28.3
2014-Sep-01 15:37 201 6 gusting 6 28.3
2014-Sep-01 15:27 215 4 gusting 6 28.9
2014-Sep-01 15:17 221 4 gusting 4 28.9
2014-Sep-01 15:07 198 6 gusting 8 28.9
2014-Sep-01 14:57 218 6 gusting 6 28.9
2014-Sep-01 14:47 229 5 gusting 6 28.9
2014-Sep-01 14:37 217 5 gusting 6 29.4
2014-Sep-01 14:27 205 6 gusting 8 29.4
2014-Sep-01 14:17 203 5 gusting 7 30.0
2014-Sep-01 14:07 212 6 gusting 7 30.0
2014-Sep-01 13:57 214 6 gusting 7 29.4
2014-Sep-01 13:47 201 5 gusting 5 29.4
2014-Sep-01 13:37 186 6 gusting 7 29.4
2014-Sep-01 13:27 221 5 gusting 7 29.4
2014-Sep-01 13:17 208 6 gusting 7 29.4
2014-Sep-01 13:07 220 5 gusting 5 29.4
2014-Sep-01 12:57 205 6 gusting 7 29.4
2014-Sep-01 12:47 208 5 gusting 6 29.4
2014-Sep-01 12:37 224 5 gusting 6 30.0
2014-Sep-01 12:27 213 6 gusting 6 29.4
2014-Sep-01 12:17 206 4 gusting 7 29.4
2014-Sep-01 12:07 205 4 gusting 8 29.4
2014-Sep-01 11:57 215 5 gusting 5 29.4
2014-Sep-01 11:47 204 3 gusting 6 28.9
2014-Sep-01 11:37 194 5 gusting 4 28.3
2014-Sep-01 11:27 203 3 gusting 6 28.3
2014-Sep-01 11:17 212 4 gusting 6 28.3
2014-Sep-01 11:07 218 5 gusting 8 28.3
2014-Sep-01 10:57 224 4 gusting 5 27.8
2014-Sep-01 10:47 247 4 gusting 4 27.8
2014-Sep-01 10:37 231 3 gusting 5 27.8
2014-Sep-01 10:27 222 3 gusting 6 27.8
2014-Sep-01 10:17 205 2 gusting 3 27.8
2014-Sep-01 10:07 265 4 gusting 5 27.8
2014-Sep-01 09:57 229 4 gusting 5 27.8
2014-Sep-01 09:47 213 3 gusting 5 27.8
2014-Sep-01 09:37 239 3 gusting 4 27.8
2014-Sep-01 09:27 234 3 gusting 6 27.2
2014-Sep-01 09:17 230 2 gusting 6 27.2
2014-Sep-01 09:07 281 4 gusting 6 27.2
2014-Sep-01 08:57 274 3 gusting 5 27.2
2014-Sep-01 08:47 291 3 gusting 3 27.2
2014-Sep-01 08:37 278 2 gusting 2 27.2
2014-Sep-01 08:27 272 2 gusting 3 27.2
2014-Sep-01 08:17 259 2 gusting 3 27.8
2014-Sep-01 08:07 237 3 gusting 3 27.8
2014-Sep-01 07:57 178 2 gusting 3 28.3
2014-Sep-01 07:47 236 3 gusting 4 28.3
2014-Sep-01 07:37 189 27.8
2014-Sep-01 07:27 264 1 gusting 3 27.8
2014-Sep-01 07:17 205 27.8
2014-Sep-01 07:07 225 2 gusting 3 27.8
2014-Sep-01 06:57 246 2 gusting 4 27.2
2014-Sep-01 06:47 212 27.2
2014-Sep-01 06:37 246 2 gusting 3 27.2
2014-Sep-01 06:27 198 2 gusting 3 27.2
2014-Sep-01 06:17 185 2 gusting 3 27.2
2014-Sep-01 06:07 238 0 gusting 3 26.7
2014-Sep-01 05:57 239 3 gusting 4 26.7
2014-Sep-01 05:47 223 2 gusting 3 26.1
2014-Sep-01 05:37 283 1 gusting 3 25.6
2014-Sep-01 05:27 283 25.0
2014-Sep-01 05:17 335 25.0
2014-Sep-01 05:07 335 25.0
2014-Sep-01 04:57 335 24.4
2014-Sep-01 04:47 335 24.4
2014-Sep-01 04:37 333 24.4
2014-Sep-01 04:27 325 25.0
2014-Sep-01 04:17 322 25.0
2014-Sep-01 04:07 322 24.4
2014-Sep-01 03:57 322 24.4
2014-Sep-01 03:47 049 24.4
2014-Sep-01 03:37 049 24.4
2014-Sep-01 03:27 049 24.4
2014-Sep-01 03:17 049 24.4
2014-Sep-01 03:07 049 2 gusting 3 24.4
2014-Sep-01 02:57 048 2 gusting 3 24.4
2014-Sep-01 02:47 048 24.4
2014-Sep-01 02:37 048 2 gusting 3 24.4
2014-Sep-01 02:27 043 24.4
2014-Sep-01 02:17 043 24.4
2014-Sep-01 02:07 043 2 gusting 3 24.4
2014-Sep-01 01:57 034 24.4
2014-Sep-01 01:47 046 24.4
2014-Sep-01 01:38 043 24.4
2014-Sep-01 01:28 045 0 24.4
2014-Sep-01 01:18 047 24.4
2014-Sep-01 01:08 047 0 gusting 2 24.4
2014-Sep-01 00:58 056 25.0
2014-Sep-01 00:48 056 2 gusting 3 25.0
2014-Sep-01 00:37 052 25.0
2014-Sep-01 00:27 077 25.0
2014-Sep-01 00:17 077 24.4
2014-Sep-01 00:07 077 25.0
2014-Aug-31 23:57 077 25.0
2014-Aug-31 23:47 077 1 gusting 3 25.6
2014-Aug-31 23:37 075 25.6
2014-Aug-31 23:27 075 25.6
2014-Aug-31 23:17 075 25.6
2014-Aug-31 23:07 075 25.6
2014-Aug-31 22:57 075 25.6
2014-Aug-31 22:47 075 25.6
2014-Aug-31 22:37 075 25.6
2014-Aug-31 22:27 075 25.6
2014-Aug-31 22:17 075 25.6
2014-Aug-31 22:07 076 26.1
2014-Aug-31 21:57 075 26.1
2014-Aug-31 21:47 075 26.1
2014-Aug-31 21:37 075 26.1
2014-Aug-31 21:27 076 26.1
2014-Aug-31 21:17 070 0 gusting 2 26.7
2014-Aug-31 21:07 097 1 gusting 3 26.7
2014-Aug-31 20:57 083 26.1
2014-Aug-31 20:47 079 0 26.1
2014-Aug-31 20:37 084 26.7
2014-Aug-31 20:27 077 0 gusting 2 26.7
2014-Aug-31 20:17 130 2 gusting 2 26.7
2014-Aug-31 20:07 128 0 gusting 4 26.7
2014-Aug-31 19:57 098 2 gusting 3 26.7
2014-Aug-31 19:47 146 3 gusting 5 26.7
2014-Aug-31 19:37 180 3 gusting 4 26.7
2014-Aug-31 19:27 152 26.7
2014-Aug-31 19:17 162 0 gusting 3 26.7
2014-Aug-31 19:07 191 2 gusting 2 26.7
2014-Aug-31 18:57 175 4 gusting 5 27.2
2014-Aug-31 18:47 119 2 gusting 4 27.2
2014-Aug-31 18:37 139 2 gusting 4 27.2
2014-Aug-31 18:27 140 3 gusting 4 27.2
2014-Aug-31 18:17 145 3 gusting 2 27.2
2014-Aug-31 18:07 128 4 gusting 7 27.2
2014-Aug-31 17:57 160 3 gusting 4 27.2
2014-Aug-31 17:47 181 0 gusting 3 27.2
2014-Aug-31 17:37 174 3 gusting 5 27.8
2014-Aug-31 17:27 150 3 gusting 5 27.8
2014-Aug-31 17:17 159 3 gusting 5 27.8
2014-Aug-31 17:07 179 3 gusting 5 27.8
2014-Aug-31 16:57 205 5 gusting 5 27.8
2014-Aug-31 16:47 209 6 gusting 7 27.8
2014-Aug-31 16:37 176 6 gusting 7 27.8
2014-Aug-31 16:27 214 6 gusting 9 27.8
2014-Aug-31 16:17 201 4 gusting 6 28.3
2014-Aug-31 16:07 198 5 gusting 6 28.3
2014-Aug-31 15:57 197 4 gusting 5 28.9
2014-Aug-31 15:47 209 4 gusting 5 28.3
2014-Aug-31 15:37 201 4 gusting 5 28.9
2014-Aug-31 15:27 192 4 gusting 7 28.3
2014-Aug-31 15:17 223 6 gusting 6 28.3
2014-Aug-31 15:07 234 5 gusting 6 28.3
2014-Aug-31 14:57 236 3 gusting 6 28.3
2014-Aug-31 14:47 237 6 gusting 6 28.3
2014-Aug-31 14:37 271 3 gusting 7 28.3
2014-Aug-31 14:27 252 4 gusting 5 28.3
2014-Aug-31 14:17 242 3 gusting 4 27.8
2014-Aug-31 14:07 242 2 gusting 5 28.3
2014-Aug-31 13:57 208 3 gusting 6 28.3
2014-Aug-31 13:47 218 4 gusting 5 27.8
2014-Aug-31 13:37 230 3 gusting 5 28.3
2014-Aug-31 13:27 225 3 gusting 5 28.3
2014-Aug-31 13:17 227 4 gusting 6 28.3
2014-Aug-31 13:07 209 4 gusting 7 28.3
2014-Aug-31 12:57 245 2 gusting 3 28.3
2014-Aug-31 12:47 211 3 gusting 6 28.3
2014-Aug-31 12:37 178 3 gusting 3 28.3
2014-Aug-31 12:27 198 3 gusting 6 27.8
2014-Aug-31 12:17 226 3 gusting 4 27.8
2014-Aug-31 12:07 223 5 gusting 6 27.8
2014-Aug-31 11:57 243 3 gusting 4 27.8
2014-Aug-31 11:47 254 4 gusting 5 28.3
2014-Aug-31 11:37 209 4 gusting 5 28.3
2014-Aug-31 11:27 205 3 gusting 5 27.8
2014-Aug-31 11:17 200 2 gusting 4 27.8
2014-Aug-31 11:07 261 3 gusting 3 27.8
2014-Aug-31 10:57 219 4 gusting 5 27.8
2014-Aug-31 10:47 241 4 gusting 5 27.2
2014-Aug-31 10:37 262 3 gusting 3 27.2
2014-Aug-31 10:27 305 2 gusting 3 27.2
2014-Aug-31 10:17 221 4 gusting 6 27.2
2014-Aug-31 10:07 241 3 gusting 5 26.7
2014-Aug-31 09:57 236 2 gusting 3 26.7
2014-Aug-31 09:47 226 2 gusting 3 26.7
2014-Aug-31 09:37 199 2 gusting 3 26.7
2014-Aug-31 09:27 244 3 gusting 5 26.7
2014-Aug-31 09:17 208 3 gusting 5 26.7
2014-Aug-31 09:07 222 3 gusting 4 26.7
2014-Aug-31 08:57 220 3 gusting 4 26.7
2014-Aug-31 08:47 254 2 gusting 4 26.7
2014-Aug-31 08:37 218 3 gusting 5 26.7
2014-Aug-31 08:27 205 3 gusting 4 26.7
2014-Aug-31 08:17 205 2 gusting 5 27.2
2014-Aug-31 08:07 250 3 gusting 5 27.2
2014-Aug-31 07:57 223 0 27.2
2014-Aug-31 07:47 259 2 gusting 3 27.2
2014-Aug-31 07:37 252 4 gusting 4 27.2
2014-Aug-31 07:27 240 0 gusting 3 27.2
2014-Aug-31 07:17 238 0 gusting 4 27.2
2014-Aug-31 07:07 268 27.2
2014-Aug-31 06:57 265 2 gusting 2 27.2
2014-Aug-31 06:47 201 3 gusting 5 27.2
2014-Aug-31 06:37 207 3 gusting 4 27.2
2014-Aug-31 06:27 229 26.7
2014-Aug-31 06:17 003 1 gusting 3 27.2
2014-Aug-31 06:07 095 27.2
2014-Aug-31 05:57 095 27.2
2014-Aug-31 05:47 095 26.7
2014-Aug-31 05:37 095 26.1
2014-Aug-31 05:27 095 25.0
2014-Aug-31 05:17 095 25.0
2014-Aug-31 05:07 095 24.4
2014-Aug-31 04:57 095 24.4
2014-Aug-31 04:47 095 24.4
2014-Aug-31 04:37 095 24.4
2014-Aug-31 04:27 069 23.9
2014-Aug-31 04:17 069 24.4
2014-Aug-31 04:07 069 2 gusting 2 24.4
2014-Aug-31 03:57 069 24.4
2014-Aug-31 03:47 070 23.9
2014-Aug-31 03:37 071 23.9
2014-Aug-31 03:27 071 24.4
2014-Aug-31 03:17 071 24.4
2014-Aug-31 03:07 071 24.4
2014-Aug-31 02:57 071 24.4
2014-Aug-31 02:47 075 24.4
2014-Aug-31 02:37 075 24.4
2014-Aug-31 02:27 091 2 gusting 3 25.0
2014-Aug-31 02:17 109 25.0
2014-Aug-31 02:07 081 25.0
2014-Aug-31 01:57 081 25.6
2014-Aug-31 01:47 081 2 gusting 3 25.6
2014-Aug-31 01:37 061 2 gusting 3 25.0
2014-Aug-31 01:27 045 5 gusting 6 24.4
2014-Aug-31 01:17 043 2 gusting 4 25.0
2014-Aug-31 01:07 052 3 gusting 4 25.0
2014-Aug-31 00:57 051 25.0
2014-Aug-31 00:47 051 2 gusting 3 25.0
2014-Aug-31 00:37 051 2 gusting 3 25.0
2014-Aug-31 00:27 051 0 gusting 2 25.0
2014-Aug-31 00:17 051 2 gusting 3 25.0
2014-Aug-31 00:07 051 25.0
2014-Aug-30 23:57 051 25.0
2014-Aug-30 23:47 051 25.0
2014-Aug-30 23:37 051 25.0
2014-Aug-30 23:27 050 0 gusting 3 25.0
2014-Aug-30 23:17 048 2 gusting 3 25.0
2014-Aug-30 23:07 047 25.0
2014-Aug-30 22:57 047 25.0
2014-Aug-30 22:47 047 2 gusting 2 25.6
2014-Aug-30 22:37 047 25.6
2014-Aug-30 22:27 047 25.6
2014-Aug-30 22:17 047 25.6
2014-Aug-30 22:07 047 25.6
2014-Aug-30 21:57 047 25.6
2014-Aug-30 21:47 039 25.0
2014-Aug-30 21:37 039 25.0
2014-Aug-30 21:27 039 25.6
2014-Aug-30 21:17 039 1 gusting 3 25.6
2014-Aug-30 21:07 051 25.6
2014-Aug-30 20:57 051 2 gusting 3 25.6
2014-Aug-30 20:47 104 26.1
2014-Aug-30 20:37 104 26.7
2014-Aug-30 20:27 104 26.7
2014-Aug-30 20:17 104 1 gusting 3 26.7
2014-Aug-30 20:07 087 26.7
2014-Aug-30 19:57 120 26.7
2014-Aug-30 19:47 096 1 gusting 2 26.7
2014-Aug-30 19:37 139 0 gusting 3 26.7
2014-Aug-30 19:27 146 26.7
2014-Aug-30 19:17 144 26.7
2014-Aug-30 19:07 116 26.7
2014-Aug-30 18:57 063 26.7
2014-Aug-30 18:47 154 2 gusting 3 27.2
2014-Aug-30 18:37 155 2 gusting 3 27.2
2014-Aug-30 18:27 157 3 gusting 4 27.2
2014-Aug-30 18:17 151 3 gusting 4 27.2
2014-Aug-30 18:07 171 3 gusting 5 27.2